KI5UDF Weather Reports


time (UTC)temp
C
wind
direction
speed
KPH
gust
KPH
rain 1hr
cm
rain 24hr
cm
rain mn
cm
humidity
%
barometer
mb
20260906204030 37 61 9.7 20.9 0.00 0.00 0.00 35 1012.2
20260906203527 37 112 8.0 19.3 0.00 0.00 0.00 35 1012.2
20260906203050 37 27 9.7 24.1 0.00 0.00 0.00 35 1012.3
20260906202529 37 130 14.5 24.1 0.00 0.00 0.00 36 1012.5
20260906202029 37 155 9.7 17.7 0.00 0.00 0.00 35 1012.5
20260906201552 38 113 8.0 17.7 0.00 0.00 0.00 34 1012.4
20260906201028 38 256 8.0 17.7 0.00 0.00 0.00 34 1012.4
20260906200527 38 98 8.0 22.5 0.00 0.00 0.00 35 1012.5
20260906200045 38 75 6.4 22.5 0.00 0.00 0.00 34 1012.7
20260906195531 37 123 9.7 20.9 0.00 0.00 0.00 35 1012.8
20260906195033 37 94 11.3 20.9 0.00 0.00 0.00 34 1012.9
20260906194604 38 109 11.3 20.9 0.00 0.00 0.00 34 1012.9
20260906194028 38 109 6.4 19.3 0.00 0.00 0.00 36 1012.9
20260906193528 37 127 11.3 19.3 0.00 0.00 0.00 36 1013.0
20260906193051 37 79 9.7 19.3 0.00 0.00 0.00 37 1013.1
20260906192525 37 59 9.7 27.4 0.00 0.00 0.00 36 1013.1
20260906192031 37 94 12.9 27.4 0.00 0.00 0.00 36 1013.2
20260906191547 37 107 16.1 27.4 0.00 0.00 0.00 37 1013.3
20260906191028 37 158 12.9 27.4 0.00 0.00 0.00 37 1013.3
20260906190528 37 106 11.3 20.9 0.00 0.00 0.00 37 1013.4
20260906190047 37 118 3.2 19.3 0.00 0.00 0.00 37 1013.4
20260906185528 37 121 11.3 19.3 0.00 0.00 0.00 37 1013.5
20260906185028 37 106 12.9 27.4 0.00 0.00 0.00 37 1013.5
20260906184544 37 205 14.5 27.4 0.00 0.00 0.00 38 1013.6
20260906184026 37 104 14.5 24.1 0.00 0.00 0.00 39 1013.6
20260906183528 36 98 6.4 17.7 0.00 0.00 0.00 41 1013.8
20260906183102 37 117 9.7 25.7 0.00 0.00 0.00 40 1013.8
20260906182526 36 121 12.9 25.7 0.00 0.00 0.00 41 1013.8
20260906182026 37 144 4.8 14.5 0.00 0.00 0.00 40 1013.9
20260906181550 37 89 4.8 22.5 0.00 0.00 0.00 40 1014.0
20260906181027 37 231 11.3 22.5 0.00 0.00 0.00 39 1014.1
20260906180529 37 137 9.7 19.3 0.00 0.00 0.00 38 1014.2
20260906180103 37 60 0.0 17.7 0.00 0.00 0.00 40 1014.3
20260906175532 37 118 6.4 20.9 0.00 0.00 0.00 40 1014.3
20260906175031 36 114 11.3 20.9 0.00 0.00 0.00 41 1014.4
20260906174550 36 94 9.7 20.9 0.00 0.00 0.00 42 1014.5
20260906174029 36 124 9.7 16.1 0.00 0.00 0.00 41 1014.5
20260906173529 36 143 8.0 16.1 0.00 0.00 0.00 42 1014.7
20260906173049 35 44 1.6 14.5 0.00 0.00 0.00 44 1014.8
20260906172531 35 344 4.8 17.7 0.00 0.00 0.00 43 1014.9
20260906172028 35 40 4.8 17.7 0.00 0.00 0.00 44 1015.0
20260906171607 36 97 4.8 17.7 0.00 0.00 0.00 43 1015.0
20260906171032 36 10 4.8 14.5 0.00 0.00 0.00 42 1015.1
20260906170527 36 86 3.2 14.5 0.00 0.00 0.00 42 1015.2
20260906170057 36 207 3.2 14.5 0.00 0.00 0.00 43 1015.2
20260906165528 36 82 3.2 16.1 0.00 0.00 0.00 43 1015.2
20260906165029 36 182 6.4 19.3 0.00 0.00 0.00 43 1015.3
20260906164544 36 131 6.4 19.3 0.00 0.00 0.00 43 1015.3
20260906164028 36 173 6.4 17.7 0.00 0.00 0.00 43 1015.4
20260906163529 35 296 4.8 16.1 0.00 0.00 0.00 44 1015.4
20260906163052 35 85 4.8 16.1 0.00 0.00 0.00 43 1015.4
20260906162526 35 132 3.2 12.9 0.00 0.00 0.00 45 1015.3
20260906162028 35 159 4.8 16.1 0.00 0.00 0.00 46 1015.4
20260906161612 35 160 6.4 16.1 0.00 0.00 0.00 46 1015.4
20260906161027 34 88 6.4 14.5 0.00 0.00 0.00 47 1015.3
20260906160528 34 87 8.0 12.9 0.00 0.00 0.00 47 1015.3
20260906160049 34 126 6.4 14.5 0.00 0.00 0.00 47 1015.3
20260906155530 33 174 6.4 14.5 0.00 0.00 0.00 49 1015.3
20260906155027 33 121 3.2 12.9 0.00 0.00 0.00 49 1015.3
20260906154552 33 230 3.2 12.9 0.00 0.00 0.00 50 1015.4
20260906154030 33 198 6.4 12.9 0.00 0.00 0.00 50 1015.2
20260906153529 33 0 4.8 9.7 0.00 0.00 0.00 52 1015.3
20260906153107 32 246 1.6 8.0 0.00 0.00 0.00 53 1015.3
20260906152528 32 236 3.2 11.3 0.00 0.00 0.00 53 1015.2
20260906152028 32 197 6.4 11.3 0.00 0.00 0.00 54 1015.2
20260906151546 31 204 6.4 11.3 0.00 0.00 0.00 55 1015.2
20260906151028 31 156 4.8 12.9 0.00 0.00 0.00 56 1015.2
20260906150528 31 214 4.8 12.9 0.00 0.00 0.00 57 1015.1
20260906150046 31 213 6.4 12.9 0.00 0.00 0.00 57 1015.1
20260906145530 31 223 4.8 9.7 0.00 0.00 0.00 57 1015.2
20260906145030 30 186 4.8 9.7 0.00 0.00 0.00 58 1015.2
20260906144551 30 188 6.4 11.3 0.00 0.00 0.00 58 1015.2
20260906144029 30 236 6.4 11.3 0.00 0.00 0.00 59 1015.3
20260906143530 30 245 4.8 14.5 0.00 0.00 0.00 59 1015.3
20260906143050 30 225 6.4 14.5 0.00 0.00 0.00 59 1015.3
20260906142529 30 193 4.8 9.7 0.00 0.00 0.00 60 1015.3
20260906142028 29 184 4.8 9.7 0.00 0.00 0.00 61 1015.2
20260906141603 29 236 4.8 9.7 0.00 0.00 0.00 61 1015.2
20260906141028 28 185 3.2 8.0 0.00 0.00 0.00 62 1015.1
20260906140528 28 240 3.2 8.0 0.00 0.00 0.00 63 1015.1
20260906140044 28 165 4.8 8.0 0.00 0.00 0.00 65 1015.0
20260906135528 27 155 3.2 8.0 0.00 0.00 0.00 67 1015.0
20260906135029 27 124 1.6 4.8 0.00 0.00 0.00 68 1015.1
20260906134550 26 130 0.0 3.2 0.00 0.00 0.00 69 1015.0
20260906134030 26 0 0.0 3.2 0.00 0.00 0.00 70 1015.0
20260906133526 25 0 0.0 3.2 0.00 0.00 0.00 71 1015.0
20260906133057 25 0 0.0 4.8 0.00 0.00 0.00 72 1015.0
20260906132530 25 0 1.6 6.4 0.00 0.00 0.00 72 1015.0
20260906132027 24 130 3.2 6.4 0.00 0.00 0.00 73 1015.0
20260906131600 24 161 1.6 6.4 0.00 0.00 0.00 74 1015.0
20260906131028 24 161 1.6 6.4 0.00 0.00 0.00 74 1014.9
20260906130528 23 161 3.2 6.4 0.00 0.00 0.00 75 1014.8
20260906130054 23 161 1.6 6.4 0.00 0.00 0.00 75 1014.8
20260906125528 23 161 1.6 6.4 0.00 0.00 0.00 75 1014.6
20260906125027 23 161 0.0 3.2 0.00 0.00 0.00 75 1014.5
20260906124552 23 0 0.0 0.0 0.00 0.00 0.00 75 1014.5
20260906124029 23 0 0.0 3.2 0.00 0.00 0.00 75 1014.5
20260906123528 23 0 0.0 3.2 0.00 0.00 0.00 76 1014.5
20260906123055 23 0 0.0 3.2 0.00 0.00 0.00 75 1014.4
20260906122526 23 0 0.0 3.2 0.00 0.00 0.00 75 1014.4
20260906122025 23 161 0.0 3.2 0.00 0.00 0.00 75 1014.3
20260906121548 23 0 0.0 0.0 0.00 0.00 0.00 75 1014.2
20260906121029 23 0 0.0 0.0 0.00 0.00 0.00 76 1014.0
20260906120529 23 0 0.0 0.0 0.00 0.00 0.00 75 1014.0
20260906115527 23 0 0.0 0.0 0.00 0.00 0.00 75 1014.0
20260906115028 23 0 0.0 3.2 0.00 0.00 0.00 74 1013.9
20260906114553 23 0 0.0 3.2 0.00 0.00 0.00 74 1013.8
20260906114025 24 161 0.0 3.2 0.00 0.00 0.00 74 1013.8
20260906113526 24 161 1.6 3.2 0.00 0.00 0.00 72 1013.8
20260906113050 24 161 0.0 3.2 0.00 0.00 0.00 71 1013.6
20260906112529 24 0 0.0 3.2 0.00 0.00 0.00 71 1013.6
20260906112026 24 0 0.0 3.2 0.00 0.00 0.00 71 1013.5
20260906111547 24 161 1.6 3.2 0.00 0.00 0.00 72 1013.5
20260906111027 24 161 1.6 6.4 0.00 0.00 0.00 71 1013.5
20260906110528 24 0 1.6 6.4 0.00 0.00 0.00 71 1013.4
20260906110043 24 161 1.6 6.4 0.00 0.00 0.00 71 1013.4
20260906105528 24 161 3.2 6.4 0.00 0.00 0.00 71 1013.5
20260906105027 24 161 4.8 6.4 0.00 0.00 0.00 71 1013.5
20260906104550 24 164 1.6 6.4 0.00 0.00 0.00 71 1013.6
20260906104026 24 164 0.0 3.2 0.00 0.00 0.00 71 1013.4
20260906103527 25 0 0.0 4.8 0.00 0.00 0.00 70 1013.3
20260906103050 25 0 0.0 6.4 0.00 0.00 0.00 70 1013.4
20260906102529 25 164 1.6 6.4 0.00 0.00 0.00 70 1013.3
20260906102025 25 164 1.6 6.4 0.00 0.00 0.00 70 1013.3
20260906101544 25 0 0.0 0.0 0.00 0.00 0.00 70 1013.3
20260906101027 25 0 0.0 1.6 0.00 0.00 0.00 70 1013.3
20260906100533 25 0 0.0 1.6 0.00 0.00 0.00 70 1013.4
20260906100054 25 0 0.0 0.0 0.00 0.00 0.00 69 1013.4
20260906095529 25 0 0.0 0.0 0.00 0.00 0.00 69 1013.4
20260906095026 25 0 0.0 0.0 0.00 0.00 0.00 69 1013.4
20260906094557 25 0 0.0 0.0 0.00 0.00 0.00 69 1013.4
20260906094028 25 0 0.0 0.0 0.00 0.00 0.00 69 1013.3
20260906093529 25 0 0.0 0.0 0.00 0.00 0.00 69 1013.3
20260906093051 25 0 0.0 0.0 0.00 0.00 0.00 69 1013.3
20260906092531 25 0 0.0 0.0 0.00 0.00 0.00 69 1013.2
20260906092028 25 0 0.0 0.0 0.00 0.00 0.00 69 1013.3
20260906091550 25 0 0.0 0.0 0.00 0.00 0.00 69 1013.2
20260906091027 25 0 0.0 0.0 0.00 0.00 0.00 68 1013.3
20260906090530 25 0 0.0 0.0 0.00 0.00 0.00 68 1013.2
20260906090056 25 0 0.0 1.6 0.00 0.00 0.00 68 1013.2
20260906085528 25 0 0.0 6.4 0.00 0.00 0.00 68 1013.2
20260906085028 25 0 0.0 6.4 0.00 0.00 0.00 68 1013.1
20260906084547 25 164 1.6 6.4 0.00 0.00 0.00 68 1013.2
20260906084035 25 164 0.0 6.4 0.00 0.00 0.00 68 1013.1
20260906083529 25 164 1.6 8.0 0.00 0.00 0.00 68 1013.2
20260906083047 25 164 3.2 8.0 0.00 0.00 0.00 68 1013.2
20260906082527 25 119 1.6 6.4 0.00 0.00 0.00 68 1013.2
20260906082028 25 121 3.2 6.4 0.00 0.00 0.00 68 1013.2
20260906081549 25 67 3.2 6.4 0.00 0.00 0.00 67 1013.2
20260906081027 26 60 3.2 6.4 0.00 0.00 0.00 66 1013.1
20260906080529 26 65 1.6 3.2 0.00 0.00 0.00 65 1013.1
20260906080104 26 0 0.0 1.6 0.00 0.00 0.00 65 1013.0
20260906075528 26 0 0.0 3.2 0.00 0.00 0.00 64 1013.0
20260906075028 26 65 0.0 3.2 0.00 0.00 0.00 63 1013.0
20260906074551 27 0 0.0 3.2 0.00 0.00 0.00 62 1013.0
20260906074030 27 0 0.0 4.8 0.00 0.00 0.00 62 1013.0
20260906073528 27 65 1.6 4.8 0.00 0.00 0.00 61 1013.0
20260906073047 27 65 1.6 4.8 0.00 0.00 0.00 60 1013.0
20260906072531 28 65 1.6 4.8 0.00 0.00 0.00 59 1012.8
20260906072027 28 65 1.6 8.0 0.00 0.00 0.00 57 1012.9
20260906071549 29 0 0.0 8.0 0.00 0.00 0.00 55 1013.0
20260906071028 29 186 3.2 8.0 0.00 0.00 0.00 54 1013.0
20260906070531 29 204 0.0 9.7 0.00 0.00 0.00 54 1013.0
20260906070045 29 218 4.8 9.7 0.00 0.00 0.00 54 1013.0
20260906065528 29 206 4.8 9.7 0.00 0.00 0.00 54 1012.9
20260906065031 29 219 4.8 9.7 0.00 0.00 0.00 54 1012.9
20260906064552 29 225 4.8 9.7 0.00 0.00 0.00 54 1013.0
20260906064026 29 0 3.2 9.7 0.00 0.00 0.00 54 1013.0
20260906063528 29 213 6.4 11.3 0.00 0.00 0.00 53 1013.0
20260906063047 30 196 6.4 11.3 0.00 0.00 0.00 53 1012.9
20260906062530 30 204 4.8 12.9 0.00 0.00 0.00 53 1012.9
20260906062027 30 198 6.4 12.9 0.00 0.00 0.00 53 1012.9
20260906061549 30 211 6.4 12.9 0.00 0.00 0.00 53 1013.0
20260906061027 30 202 6.4 12.9 0.00 0.00 0.00 53 1013.0
20260906060529 30 198 8.0 12.9 0.00 0.00 0.00 52 1013.1
20260906060054 30 198 8.0 12.9 0.00 0.00 0.00 52 1013.0
20260906055527 30 184 6.4 12.9 0.00 0.00 0.00 52 1013.1
20260906055029 30 194 6.4 14.5 0.00 0.00 0.00 52 1013.0
20260906054605 30 192 8.0 14.5 0.00 0.00 0.00 52 1012.9
20260906054026 30 181 8.0 12.9 0.00 0.00 0.00 52 1012.8
20260906053528 30 199 8.0 14.5 0.00 0.00 0.00 52 1012.8
20260906053050 30 190 8.0 14.5 0.00 0.00 0.00 51 1012.7
20260906052527 30 171 8.0 14.5 0.00 0.00 0.00 51 1012.7
20260906052029 30 203 9.7 14.5 0.00 0.00 0.00 51 1012.8
20260906051545 30 190 9.7 16.1 0.00 0.00 0.00 51 1012.8
20260906051029 30 186 9.7 16.1 0.00 0.00 0.00 50 1012.8
20260906050529 30 207 8.0 14.5 0.00 0.00 0.00 50 1012.8
20260906050057 30 175 8.0 16.1 0.00 0.00 0.00 50 1012.8
20260906045529 30 200 8.0 16.1 0.00 0.00 0.00 50 1012.8
20260906045029 30 204 8.0 12.9 0.00 0.00 0.00 50 1012.8
20260906044551 30 201 8.0 12.9 0.00 0.00 0.00 50 1012.8
20260906044026 30 190 6.4 12.9 0.00 0.00 0.00 51 1012.9
20260906043529 30 167 6.4 12.9 0.00 0.00 0.00 50 1012.9
20260906043045 30 165 6.4 11.3 0.00 0.00 0.00 50 1012.8
20260906042527 30 204 6.4 11.3 0.00 0.00 0.00 50 1012.9
20260906042027 30 199 4.8 12.9 0.00 0.00 0.00 50 1012.8
20260906041546 30 188 6.4 12.9 0.00 0.00 0.00 50 1012.8
20260906041029 30 142 4.8 11.3 0.00 0.00 0.00 50 1012.9
20260906040528 30 173 6.4 11.3 0.00 0.00 0.00 50 1012.9
20260906040053 30 167 4.8 9.7 0.00 0.00 0.00 50 1012.9
20260906035527 30 192 4.8 9.7 0.00 0.00 0.00 50 1012.9
20260906035026 30 150 4.8 9.7 0.00 0.00 0.00 50 1013.0
20260906034559 30 186 4.8 9.7 0.00 0.00 0.00 50 1013.0
20260906034026 30 161 3.2 8.0 0.00 0.00 0.00 50 1013.0
20260906033529 30 167 3.2 8.0 0.00 0.00 0.00 50 1013.0
20260906033049 30 177 3.2 8.0 0.00 0.00 0.00 50 1012.9
20260906032527 30 184 4.8 8.0 0.00 0.00 0.00 50 1012.9
20260906032028 30 171 4.8 9.7 0.00 0.00 0.00 50 1012.8
20260906031553 30 165 4.8 9.7 0.00 0.00 0.00 50 1012.8
20260906031027 30 169 1.6 6.4 0.00 0.00 0.00 50 1012.9
20260906030530 30 169 1.6 6.4 0.00 0.00 0.00 50 1012.9
20260906030053 30 169 1.6 6.4 0.00 0.00 0.00 50 1012.9
20260906025528 30 169 3.2 8.0 0.00 0.00 0.00 50 1012.9
20260906025027 31 169 3.2 8.0 0.00 0.00 0.00 49 1012.8
20260906024552 31 153 3.2 6.4 0.00 0.00 0.00 49 1012.8
20260906024027 31 165 3.2 6.4 0.00 0.00 0.00 48 1012.7
20260906023529 31 165 3.2 6.4 0.00 0.00 0.00 48 1012.6
20260906023044 31 165 1.6 6.4 0.00 0.00 0.00 48 1012.5
20260906022527 31 165 1.6 6.4 0.00 0.00 0.00 47 1012.5
20260906022026 31 165 1.6 6.4 0.00 0.00 0.00 47 1012.5
20260906021547 31 165 3.2 6.4 0.00 0.00 0.00 47 1012.4
20260906021029 32 165 0.0 3.2 0.00 0.00 0.00 47 1012.5
20260906020530 32 0 1.6 4.8 0.00 0.00 0.00 46 1012.3
20260906020047 32 165 1.6 6.4 0.00 0.00 0.00 46 1012.2
20260906015528 32 165 3.2 8.0 0.00 0.00 0.00 46 1012.2
20260906015029 32 165 3.2 8.0 0.00 0.00 0.00 46 1012.1
20260906014555 32 167 4.8 8.0 0.00 0.00 0.00 45 1011.9
20260906014033 32 155 3.2 8.0 0.00 0.00 0.00 45 1011.9
20260906013526 33 153 1.6 6.4 0.00 0.00 0.00 44 1011.9
20260906013052 33 172 3.2 8.0 0.00 0.00 0.00 44 1011.8
20260906012529 33 157 3.2 8.0 0.00 0.00 0.00 43 1011.8
20260906012026 33 161 3.2 8.0 0.00 0.00 0.00 43 1011.6
20260906011550 33 161 3.2 8.0 0.00 0.00 0.00 42 1011.6
20260906011025 34 168 3.2 6.4 0.00 0.00 0.00 42 1011.6
20260906010526 34 162 3.2 8.0 0.00 0.00 0.00 41 1011.6
20260906010118 34 162 3.2 8.0 0.00 0.00 0.00 41 1011.6
20260906005529 35 161 3.2 8.0 0.00 0.00 0.00 40 1011.5
20260906005026 35 131 4.8 11.3 0.00 0.00 0.00 40 1011.5
20260906004556 35 126 6.4 11.3 0.00 0.00 0.00 40 1011.4
20260906004032 35 134 4.8 12.9 0.00 0.00 0.00 39 1011.4
20260906003528 35 123 4.8 14.5 0.00 0.00 0.00 39 1011.3
20260906003053 35 130 6.4 14.5 0.00 0.00 0.00 39 1011.3
20260906002528 36 125 8.0 14.5 0.00 0.00 0.00 38 1011.3
20260906002027 36 129 6.4 14.5 0.00 0.00 0.00 38 1011.3
20260906001600 36 132 8.0 16.1 0.00 0.00 0.00 38 1011.3
20260906001028 36 132 9.7 16.1 0.00 0.00 0.00 37 1011.3
20260906000529 36 126 9.7 16.1 0.00 0.00 0.00 37 1011.3
20260906000047 36 101 8.0 17.7 0.00 0.00 0.00 37 1011.2
20260905235530 36 119 8.0 17.7 0.00 0.00 0.00 37 1011.1
20260905235028 36 138 11.3 17.7 0.00 0.00 0.00 37 1011.1
20260905234556 36 147 9.7 17.7 0.00 0.00 0.00 36 1011.0
20260905234027 36 133 9.7 19.3 0.00 0.00 0.00 37 1011.1
20260905233528 36 151 12.9 19.3 0.00 0.00 0.00 36 1011.0
20260905233050 37 134 9.7 24.1 0.00 0.00 0.00 36 1010.9
20260905232530 36 162 9.7 24.1 0.00 0.00 0.00 36 1011.0
20260905232027 37 144 11.3 17.7 0.00 0.00 0.00 36 1010.9
20260905231607 37 123 6.4 22.5 0.00 0.00 0.00 36 1010.9
20260905231031 37 132 12.9 22.5 0.00 0.00 0.00 36 1010.9
20260905230528 37 139 11.3 22.5 0.00 0.00 0.00 36 1010.9
20260905225535 37 140 14.5 24.1 0.00 0.00 0.00 35 1010.8
20260905225027 37 130 11.3 25.7 0.00 0.00 0.00 36 1010.9
20260905224551 37 134 14.5 25.7 0.00 0.00 0.00 36 1010.9
20260905224026 37 130 12.9 22.5 0.00 0.00 0.00 36 1011.0
20260905223529 37 84 6.4 17.7 0.00 0.00 0.00 36 1010.9
20260905223054 37 117 11.3 19.3 0.00 0.00 0.00 36 1011.0
20260905222530 37 107 6.4 19.3 0.00 0.00 0.00 36 1010.9
20260905222029 37 123 12.9 20.9 0.00 0.00 0.00 36 1010.9
20260905221600 37 132 8.0 20.9 0.00 0.00 0.00 37 1011.0
20260905221028 37 142 9.7 20.9 0.00 0.00 0.00 37 1010.9
20260905220532 37 127 6.4 20.9 0.00 0.00 0.00 36 1011.0
20260905220058 37 138 12.9 22.5 0.00 0.00 0.00 36 1011.0
20260905215529 36 125 14.5 27.4 0.00 0.00 0.00 36 1011.0
20260905215027 36 96 14.5 27.4 0.00 0.00 0.00 37 1011.0
20260905214550 37 74 11.3 20.9 0.00 0.00 0.00 36 1011.1
20260905214028 37 86 12.9 20.9 0.00 0.00 0.00 35 1011.2
20260905213528 37 103 11.3 20.9 0.00 0.00 0.00 36 1011.2
20260905213049 37 136 4.8 22.5 0.00 0.00 0.00 36 1011.4
20260905212533 37 133 12.9 24.1 0.00 0.00 0.00 36 1011.4
20260905212026 37 130 16.1 24.1 0.00 0.00 0.00 36 1011.5
20260905211554 36 144 11.3 24.1 0.00 0.00 0.00 37 1011.5
20260905211029 37 80 9.7 24.1 0.00 0.00 0.00 37 1011.5
20260905210528 37 122 14.5 24.1 0.00 0.00 0.00 36 1011.6
20260905210110 37 124 8.0 25.7 0.00 0.00 0.00 36 1011.7
20260905205528 37 110 14.5 25.7 0.00 0.00 0.00 35 1011.9
20260905205029 37 160 12.9 25.7 0.00 0.00 0.00 37 1011.9
20260905204546 37 102 11.3 27.4 0.00 0.00 0.00 38 1012.0